Regional Weather Roundup
Issued by NWS

Home | Current Version | Previous Version | Graphics & Text | Print | Product List | Glossary On
Versions: 1 2 3 4 5 6 7 8 9 10 11 12 13 14 15 16 17 18 19 20 21 22 23 24 25 26 27 28 29 30 31 32 33 34 35 36 37 38 39 40 41 42 43 44 45 46 47 48 49 50
000
ASUS43 KOAX 232202
RWRNE

WEATHER ROUNDUP FOR NEBRASKA
NATIONAL WEATHER SERVICE OMAHA NE
500 PM CDT TUE SEP 23 2014

NOTES: SATELLITE DATA IS BEING USED TO AUGMENT CLOUD COVER ABOVE
       12000 FEET.
       "FAIR" INDICATES FEW OR NO CLOUDS BELOW 12,000 FEET WITH NO
       SIGNIFICANT WEATHER AND/OR OBSTRUCTIONS TO VISIBILITY.

  * THESE STATIONS DO NOT REPORT WEATHER SUCH AS RAIN...SNOW OR FOG.

NEZ001>004-019>022-054>056-232300-
NEBRASKA PANHANDLE

CITY           SKY/WX    TMP DP  RH WIND       PRES   REMARKS
SCOTTSBLUFF    MOSUNNY   84  45  25 W14       29.99S
ALLIANCE       MOSUNNY   83  46  27 N16       29.97S
CHADRON        PTSUNNY   78  51  38 NW9       29.95S
KIMBALL        CLOUDY    80  41  25 NW17      30.05S
SIDNEY         PTSUNNY   84  43  23 NW15G23   30.03S
$$

NEZ057>060-069>072-079>082-232300-
SOUTHWEST NEBRASKA

CITY           SKY/WX    TMP DP  RH WIND       PRES   REMARKS
NORTH PLATTE   SUNNY     83  53  35 SW8       29.93F
IMPERIAL       MOSUNNY   87  44  22 NW15      29.96F
LEXINGTON      MOSUNNY   77  63  62 S12       29.96F
MCCOOK         MOSUNNY   83  55  38 S6        29.96S
OGALLALA       MOSUNNY   85  48  27 NW5       29.95S
$$

NEZ005>010-023>029-035>040-094-232300-
NORTH CENTRAL NEBRASKA

CITY           SKY/WX    TMP DP  RH WIND       PRES   REMARKS
VALENTINE      CLOUDY    77  57  50 VRB3      29.90S
AINSWORTH      RAIN      70  62  77 E3        29.92S
BROKEN BOW     SUNNY     78  60  53 S14       29.95S
O`NEILL        CLOUDY    66  60  79 SE12      29.98S
ORD            PTSUNNY   70  58  65 S14G21    29.96S
THEDFORD       PTSUNNY   80  54  40 NW12G20   29.93R
$$

NEZ041-046>049-061>064-073>077-083>087-232300-
SOUTH CENTRAL NEBRASKA

CITY           SKY/WX    TMP DP  RH WIND       PRES   REMARKS
GRAND ISLAND   CLOUDY    66  56  70 S18G26    30.01F
AURORA         CLOUDY    66  55  68 S13G21    30.03S
HASTINGS       CLOUDY    67  55  65 SE14G23   30.01F
HEBRON         CLOUDY    66  56  72 SE18G24   30.05S
HOLDREGE       MOSUNNY   75  57  53 S16       29.98S
KEARNEY *      MOSUNNY   72  57  60 SE17      30.00R
$$

NEZ011>018-030>034-042>045-232300-
NORTHEAST NEBRASKA

CITY           SKY/WX    TMP DP  RH WIND       PRES   REMARKS
NORFOLK        CLOUDY    67  57  70 S23G36    30.01S
ALBION         CLOUDY    66  55  68 S14G23    30.01R
BLAIR          CLOUDY    70  55  58 S18G24    30.07F
COLUMBUS *     CLOUDY    64  55  72 S14G23    30.05S
FREMONT        CLOUDY    67  52  59 S18G26    30.08R
TEKAMAH        CLOUDY    71  57  61 S16       30.06F
WAYNE          CLOUDY    66  58  75 SE18G24   30.03F
$$

NEZ050>053-065>068-078-088>093-232300-
SOUTHEAST NEBRASKA

CITY           SKY/WX    TMP DP  RH WIND       PRES   REMARKS
LINCOLN        CLOUDY    62  54  74 SE23      30.09S
OMAHA EPPLEY   PTSUNNY   72  54  53 S22G30    30.08F
BEATRICE       CLOUDY    59  55  87 SE14G23   30.09F THUNDER
FALLS CITY     LGT RAIN  63  62  97 E7        30.12F
NEBRASKA CITY  CLOUDY    61  53  73 S8        30.13F
PLATTSMOUTH    CLOUDY    69  49  48 S13G25    30.11S
$$

NEZ044-045-051>053-067-232300-
OMAHA AREA

CITY           SKY/WX    TMP DP  RH WIND       PRES   REMARKS
OMAHA EPPLEY   PTSUNNY   72  54  53 S22G30    30.08F
BLAIR          CLOUDY    70  55  58 S18G24    30.07F
FREMONT        CLOUDY    67  52  59 S18G26    30.08R
MILLARD        PTSUNNY   68  53  57 S16G23    30.09S
OFFUTT AFB     PTSUNNY   69  58  68 S21       30.09F
PLATTSMOUTH    CLOUDY    69  49  48 S13G25    30.11S
WAHOO          CLOUDY    65  49  56 S14G21    30.08R
$$



USA.gov is the U.S. government's official web portal to all federal, state and local government web resources and services.